Location: Bassano
(45.7667°N, 11.7333°E)
Time: 12:37:24
(UTC+00:00)

Cosmos 2221 - Pass Details

Date: 07 June 2020
Orbit: 593 x 615 km, 82.5° (Epoch: 15 July)

Event Time Altitude Azimuth Distance (km) Brightness Sun altitude
Rises 02:07:45 0° 337° (NNW) 2,883 6.4 -10.7°
Reaches altitude 10° 02:10:23 10° 322° (NW) 1,977 5.3 -10.4°
Maximum altitude 02:13:39 21° 273° (W) 1,391 4.0 -10.0°
Enters shadow 02:16:18 13° 231° (SW) 1,790 4.3 -9.7°
